Northolt, United Kingdom

3:30 AM BST on October 17, 2017 (GMT +0100)
Northolt Air Base

Weather History for EGWU - March, 2013

Change the Weather History Date:

Friday, March 8, 2013

  Actual Average Record
Temperature  
Mean Temperature 48 °F -  
Max Temperature 50 °F 52 °F 61 °F (2014)
Min Temperature 46 °F 39 °F 24 °F (2011)
Degree Days  
Heating Degree Days 17    
Moisture  
Dew Point 46 °F    
Average Humidity 91    
Maximum Humidity 94    
Minimum Humidity 87    
Precipitation  
Precipitation 0.24 in - - ()
Sea Level Pressure  
Sea Level Pressure 29.46 in    
Wind  
Wind Speed 5 mph ()    
Max Wind Speed 7 mph    
Max Gust Speed -    
Visibility 1.9 miles    
Events Fog , Rain    
Averages and records for this station are not official NWS values.
T = Trace of Precipitation, MM = Missing Value Source: Averaged Metar Reports

Daily Weather History Graph

Daily Weather History Graph

Search for Another Location

Airport or City:

Trip Planner

Search our weather history database for the weather conditions in past years. The results will help you decide how hot, cold, wet, or windy it might be!

Date:

Astronomy

Mar. 08, 2013 Rise Set
Actual Time 6:31 AM GMT 5:54 PM GMT
Civil Twilight 5:58 AM GMT 6:27 PM GMT
Nautical Twilight 5:19 AM GMT 7:06 PM GMT
Astronomical Twilight 4:40 AM GMT 7:46 PM GMT
Moon 4:26 AM GMT (3/8) 2:13 PM GMT (3/8)
Length of Visible Light 12h 29m
Length of Day
11h 23m
Waning Crescent, 13% of the Moon is Illuminated
Mar 8
Waning Crescent
Mar 11
New
Mar 19
First Quarter
Mar 27
Full
Apr 3
Last Quarter

Hourly Weather History & Observations

Time (GMT) Temp. Windchill Dew Point Humidity Pressure Visibility Wind Dir Wind Speed Gust Speed Precip Events Conditions
12:50 AM 48.2 °F - 46.4 °F 93% 29.39 in 1.6 mi East 6.9 mph - N/A   Mostly Cloudy
1:50 AM 48.2 °F - 46.4 °F 93% 29.39 in 1.7 mi East 6.9 mph - N/A   Mostly Cloudy
2:50 AM 48 °F - 47 °F 93% 29.40 in 2 mi ESE 6.9 mph - -   Partly Cloudy
2:50 AM 48.2 °F - 46.4 °F 93% 29.39 in 1.7 mi ESE 6.9 mph - N/A   Mostly Cloudy
3:50 AM 48.2 °F - 46.4 °F 93% 29.39 in - East 4.6 mph - N/A   Mostly Cloudy
4:50 AM 48.2 °F - 46.4 °F 93% 29.39 in 1.1 mi East 4.6 mph - N/A   Overcast
5:50 AM 48 °F - 47 °F 93% 29.40 in 1 mi East 5.8 mph - -   Mist
5:50 AM 48.2 °F - 46.4 °F 93% 29.39 in 0.9 mi East 5.8 mph - N/A   Overcast
6:50 AM 48.2 °F - 46.4 °F 93% 29.39 in 0.6 mi ENE 4.6 mph - N/A Fog Fog
7:50 AM 48.2 °F - 46.4 °F 93% 29.42 in 1.0 mi East 6.9 mph - N/A   Overcast
8:50 AM 48 °F - 46 °F 92% 29.44 in 0 mi East 5.8 mph - - Rain Light Rain
8:50 AM 48.2 °F - 46.4 °F 93% 29.42 in 0.4 mi East 5.8 mph - N/A Rain Light Rain
9:50 AM 48.2 °F - 46.4 °F 93% 29.44 in 0.6 mi East 6.9 mph - N/A Rain Light Rain
10:50 AM 48.2 °F - 46.4 °F 93% 29.44 in 2.2 mi East 6.9 mph - N/A Rain Rain
11:50 AM 49 °F - 47 °F 92% 29.47 in 2 mi ENE 4.6 mph - - Rain Light Rain
11:50 AM 50.0 °F - 48.2 °F 94% 29.44 in 2.2 mi ENE 4.6 mph - N/A Rain Light Rain
12:50 PM 50.0 °F - 46.4 °F 87% 29.47 in 2.5 mi NE 4.6 mph - N/A Rain Rain
1:50 PM 50.0 °F - 46.4 °F 87% 29.47 in 2.5 mi NE 3.5 mph - N/A Rain Rain
2:50 PM 50 °F - 47 °F 87% 29.49 in 3 mi NE 4.6 mph - - Rain Rain
2:50 PM 50.0 °F - 48.2 °F 94% 29.47 in 2.8 mi NE 4.6 mph - N/A Rain Rain
3:50 PM 50.0 °F - 48.2 °F 94% 29.47 in 3.1 mi NE 4.6 mph - N/A Rain Light Rain
4:50 PM 50.0 °F - 48.2 °F 94% 29.47 in 4.3 mi NE 3.5 mph - N/A Rain Light Rain
5:50 PM 49 °F - 47 °F 90% 29.52 in 4 mi NE 4.6 mph - - Rain Light Rain
5:50 PM 50.0 °F - 46.4 °F 87% 29.50 in 4.3 mi NE 4.6 mph - N/A Rain Light Rain
6:50 PM 50.0 °F - 46.4 °F 87% 29.50 in 3.1 mi NE 4.6 mph - N/A Rain Light Rain
7:50 PM 48.2 °F - 44.6 °F 87% 29.53 in - NE 5.8 mph - N/A   Mostly Cloudy
8:50 PM 47 °F - 45 °F 90% 29.54 in 2 mi NNE 5.8 mph - -   Scattered Clouds
8:50 PM 48.2 °F - 44.6 °F 87% 29.53 in - NNE 5.8 mph - N/A   Mostly Cloudy
9:50 PM 46.4 °F 43.5 °F 44.6 °F 93% 29.53 in 1.4 mi NE 5.8 mph - N/A   Overcast
10:50 PM 46.4 °F 43.5 °F 42.8 °F 87% 29.53 in 1.9 mi NNE 5.8 mph - N/A   Mostly Cloudy
11:50 PM 46 °F - 44 °F 89% 29.56 in 1 mi North 3.5 mph - -   Mostly Cloudy
11:50 PM 46.4 °F 45.2 °F 44.6 °F 93% 29.53 in 1.1 mi North 3.5 mph - N/A   Mostly Cloudy